DW0529 Weather Reports


time (UTC)temp
C
wind
direction
speed
KPH
gust
KPH
rain 1hr
cm
rain 24hr
cm
rain mn
cm
humidity
%
barometer
mb
20210927075650 14 198 0.0 0.0 0.00 0.00 0.00 94 970.0
20210927074714 14 198 0.0 0.0 0.00 0.00 0.00 94 970.1
20210927073722 14 198 0.0 0.0 0.00 0.00 0.00 94 970.1
20210927072717 14 198 0.0 0.0 0.00 0.00 0.00 94 970.2
20210927071720 14 198 0.0 0.0 0.00 0.00 0.00 94 970.2
20210927070727 14 198 0.0 0.0 0.00 0.00 0.00 94 970.2
20210927065725 14 198 0.0 0.0 0.00 0.00 0.00 94 970.2
20210927064746 14 198 0.0 0.0 0.00 0.00 0.00 94 970.1
20210927063723 14 213 0.0 0.0 0.00 0.00 0.00 94 970.2
20210927062729 14 213 0.0 0.0 0.00 0.00 0.00 94 970.2
20210927061749 14 213 0.0 0.0 0.00 0.00 0.00 94 970.2
20210927060806 14 213 0.0 1.6 0.00 0.00 0.00 93 970.2
20210927055818 14 213 0.0 0.0 0.00 0.00 0.00 94 970.2
20210927054822 14 213 0.0 4.8 0.00 0.00 0.00 93 970.2
20210927053839 14 159 0.0 4.8 0.00 0.00 0.00 93 970.2
20210927052857 14 151 0.0 4.8 0.00 0.00 0.00 93 970.2
20210927051918 14 184 1.6 6.4 0.00 0.00 0.00 93 970.1
20210927050916 14 234 1.6 6.4 0.00 0.00 0.00 93 970.0
20210927045924 14 202 0.0 4.8 0.00 0.00 0.00 93 970.0
20210927044933 14 206 1.6 6.4 0.00 0.00 0.00 93 969.9
20210927043933 14 190 0.0 4.8 0.00 0.00 0.00 93 970.0
20210927042936 14 146 1.6 6.4 0.00 0.00 0.00 93 969.9
20210927041958 14 217 0.0 4.8 0.00 0.00 0.00 93 969.8
20210927041004 14 188 0.0 3.2 0.00 0.00 0.00 92 969.7
20210927033950 14 207 1.6 4.8 0.00 0.00 0.00 92 969.4
20210927032947 14 210 0.0 4.8 0.00 0.00 0.00 92 969.4
20210927031934 14 210 0.0 4.8 0.00 0.00 0.00 91 969.3
20210927030920 14 204 1.6 4.8 0.00 0.00 0.00 91 969.2
20210927025919 14 220 1.6 4.8 0.00 0.00 0.00 90 969.1
20210927024903 14 180 0.0 4.8 0.00 0.00 0.00 90 969.0
20210927023833 14 173 0.0 4.8 0.00 0.00 0.00 90 968.9
20210927022800 14 198 0.0 3.2 0.00 0.00 0.00 89 968.8
20210927021800 14 188 0.0 3.2 0.00 0.00 0.00 88 968.8
20210927020730 15 194 0.0 0.0 0.00 0.00 0.00 87 968.8
20210927015752 15 194 0.0 0.0 0.00 0.00 0.00 87 968.7
20210927014801 15 174 0.0 0.0 0.00 0.00 0.00 86 968.6
20210927013748 15 173 0.0 0.0 0.00 0.00 0.00 85 968.6
20210927012750 15 173 0.0 1.6 0.00 0.00 0.00 85 968.6
20210927011810 15 189 0.0 1.6 0.00 0.00 0.00 85 968.6
20210927010811 15 190 0.0 0.0 0.00 0.00 0.00 85 968.5
20210927005807 16 161 1.6 8.0 0.00 0.00 0.00 84 968.5
20210927004750 16 222 1.6 8.0 0.00 0.00 0.00 83 968.4
20210927003730 16 171 1.6 6.4 0.00 0.00 0.00 83 968.6
20210927002735 16 166 3.2 9.7 0.00 0.00 0.00 83 968.6
20210927001719 16 229 3.2 11.3 0.00 0.00 0.00 84 968.7
20210927000717 16 193 3.2 11.3 0.00 0.00 0.00 83 968.7
20210926235650 16 226 3.2 11.3 0.00 0.00 0.00 82 968.8
20210926234631 16 126 3.2 9.7 0.00 0.00 0.00 81 968.8
20210926233618 16 226 3.2 11.3 0.00 0.00 0.00 81 968.8
20210926232624 16 214 4.8 11.3 0.00 0.00 0.00 79 968.7
20210926230624 17 206 4.8 12.9 0.00 0.00 0.00 77 968.7
20210926225610 18 226 4.8 11.3 0.00 0.00 0.00 75 968.7
20210926224559 18 182 4.8 12.9 0.00 0.00 0.00 75 968.7
20210926223611 18 259 4.8 14.5 0.00 0.00 0.00 74 968.6
20210926222544 18 223 4.8 14.5 0.00 0.00 0.00 73 968.6
20210926221509 19 138 3.2 11.3 0.00 0.00 0.00 71 968.6
20210926220452 19 211 1.6 11.3 0.00 0.00 0.00 70 968.6
20210926215452 19 246 4.8 11.3 0.00 0.00 0.00 71 968.6
20210926214508 20 183 3.2 11.3 0.00 0.00 0.00 70 968.6
20210926213444 20 190 1.6 8.0 0.00 0.00 0.00 69 968.6
20210926212507 19 241 3.2 11.3 0.00 0.00 0.00 72 968.6
20210926211457 19 205 3.2 11.3 0.00 0.00 0.00 71 968.6
20210926210432 19 188 3.2 14.5 0.00 0.00 0.00 73 968.8
20210926205403 19 211 3.2 14.5 0.00 0.00 0.00 72 969.0
20210926204421 19 215 3.2 11.3 0.00 0.00 0.00 72 969.1
20210926203347 19 148 4.8 12.9 0.00 0.00 0.00 72 969.2
20210926202336 19 140 4.8 12.9 0.00 0.00 0.00 70 969.2
20210926201313 20 273 1.6 11.3 0.00 0.00 0.00 69 969.2
20210926200251 20 213 3.2 9.7 0.00 0.00 0.00 68 969.3
20210926195221 20 190 3.2 12.9 0.00 0.00 0.00 70 969.4
20210926194233 20 207 3.2 12.9 0.00 0.00 0.00 69 969.5
20210926193231 20 238 1.6 8.0 0.00 0.00 0.00 71 969.5
20210926192225 18 160 3.2 8.0 0.00 0.00 0.00 73 969.5
20210926191224 18 135 0.0 4.8 0.00 0.00 0.00 80 969.6
20210926190227 17 198 1.6 6.4 0.00 0.00 0.00 83 969.7
20210926185227 16 218 0.0 6.4 0.00 0.00 0.00 90 969.7
20210926184250 16 212 0.0 4.8 0.00 0.00 0.00 93 969.9
20210926183242 15 215 0.0 4.8 0.00 0.00 0.00 94 970.0
20210926182220 15 225 0.0 3.2 0.00 0.00 0.00 95 970.1
20210926181149 15 211 0.0 3.2 0.00 0.00 0.00 95 970.2
20210926180152 15 212 0.0 3.2 0.00 0.00 0.00 96 970.3
20210926175200 15 212 0.0 1.6 0.00 0.00 0.00 96 970.3
20210926174141 14 201 0.0 0.0 0.00 0.00 0.00 96 970.2
20210926173118 14 205 0.0 3.2 0.00 0.00 0.00 96 970.3
20210926172127 14 204 0.0 1.6 0.00 0.00 0.00 96 970.3
20210926171057 14 209 0.0 0.0 0.00 0.00 0.00 96 970.2
20210926170059 14 209 0.0 1.6 0.00 0.00 0.00 96 970.2
20210926165046 14 220 0.0 3.2 0.00 0.00 0.00 96 970.2
20210926164040 14 206 0.0 0.0 0.00 0.00 0.00 96 970.1
20210926163010 14 206 0.0 0.0 0.00 0.00 0.00 96 970.1
20210926162033 14 257 0.0 0.0 0.00 0.00 0.00 96 970.0
20210926161027 14 229 0.0 0.0 0.00 0.00 0.00 96 969.8
20210926160017 14 229 0.0 0.0 0.00 0.00 0.00 96 969.8
20210926155042 14 229 0.0 0.0 0.00 0.00 0.00 96 969.7
20210926154014 14 229 0.0 0.0 0.00 0.00 0.00 96 969.7
20210926152944 14 229 0.0 0.0 0.00 0.00 0.00 96 969.6
20210926151944 14 229 0.0 0.0 0.00 0.00 0.00 96 969.5
20210926150928 14 221 0.0 0.0 0.00 0.00 0.00 96 969.5
20210926145946 14 221 0.0 0.0 0.00 0.00 0.00 96 969.3
20210926144940 14 220 0.0 0.0 0.00 0.00 0.00 96 969.2
20210926143942 14 220 0.0 0.0 0.00 0.00 0.00 96 969.2
20210926142914 13 220 0.0 0.0 0.00 0.00 0.00 96 969.2
20210926141928 13 220 0.0 0.0 0.00 0.00 0.00 96 969.1
20210926140931 13 220 0.0 0.0 0.00 0.00 0.00 96 969.1
20210926135906 13 220 0.0 0.0 0.00 0.00 0.00 96 969.1
20210926134908 13 220 0.0 0.0 0.00 0.00 0.00 96 969.1
20210926133933 13 220 0.0 0.0 0.00 0.00 0.00 96 969.1
20210926132900 13 220 0.0 0.0 0.00 0.00 0.00 96 969.1
20210926131920 13 220 0.0 0.0 0.00 0.00 0.00 96 969.1
20210926130928 13 220 0.0 0.0 0.00 0.00 0.00 96 969.0
20210926125908 13 220 0.0 0.0 0.00 0.00 0.00 96 968.9
20210926124837 13 220 0.0 0.0 0.00 0.00 0.00 96 968.9
20210926123847 13 220 0.0 0.0 0.00 0.00 0.00 96 968.9
20210926122852 13 220 0.0 0.0 0.00 0.00 0.00 96 968.9
20210926121841 13 220 0.0 0.0 0.00 0.00 0.00 96 969.0
20210926120818 13 220 0.0 1.6 0.00 0.00 0.00 96 969.1
20210926115810 14 251 0.0 0.0 0.00 0.00 0.00 96 968.8
20210926114745 14 251 0.0 0.0 0.00 0.00 0.00 96 968.7
20210926113758 13 251 0.0 0.0 0.00 0.00 0.00 96 968.7
20210926112811 14 251 0.0 0.0 0.00 0.00 0.00 96 968.7
20210926111810 14 251 0.0 0.0 0.00 0.00 0.00 96 968.6
20210926110828 14 251 0.0 0.0 0.00 0.00 0.00 96 968.6
20210926105808 14 251 0.0 0.0 0.00 0.00 0.00 96 968.6
20210926104815 14 251 0.0 0.0 0.00 0.00 0.00 96 968.7
20210926103824 14 251 0.0 0.0 0.00 0.00 0.00 96 968.8
20210926102827 14 251 0.0 0.0 0.00 0.00 0.00 96 968.7
20210926101755 14 252 0.0 0.0 0.00 0.00 0.00 96 968.7
20210926100814 14 125 0.0 3.2 0.00 0.00 0.00 96 968.8
20210926095805 14 155 0.0 6.4 0.00 0.00 0.00 95 968.9
20210926094733 14 221 0.0 3.2 0.00 0.00 0.00 95 968.9
20210926093711 14 225 0.0 0.0 0.00 0.00 0.00 95 969.0
20210926092647 13 205 0.0 0.0 0.00 0.00 0.00 95 968.9
20210926091624 13 205 0.0 0.0 0.00 0.00 0.00 95 968.8
20210926090555 13 213 0.0 0.0 0.00 0.00 0.00 95 968.7
20210926085606 13 227 0.0 4.8 0.00 0.00 0.00 95 968.7
20210926084536 13 177 0.0 1.6 0.00 0.00 0.00 95 968.9
20210926083552 13 177 0.0 3.2 0.00 0.00 0.00 95 968.8
20210926082608 13 194 0.0 4.8 0.00 0.00 0.00 95 968.7
20210926081632 13 171 0.0 4.8 0.00 0.00 0.00 95 968.7
20210926080609 13 234 0.0 4.8 0.00 0.00 0.00 95 968.7